Location: Unspecified
(49.9820°N, 20.4363°E)
Time: 13:36:26
(UTC+02:00)

ISS - Pass Details

Date: 22 May 2018
Orbit: 402 x 407 km, 51.6° (Epoch: 20 May)

Event Time Altitude Azimuth Distance (km) Brightness Sun altitude
Rises 23:00:28 0° 256° (WSW) 2,316 0.1 -16.5°
Reaches altitude 10° 23:02:33 10° 257° (WSW) 1,457 -0.9 -16.6°
Maximum altitude 23:05:49 82° 346° (NNW) 412 -3.8 -16.8°
Drops below altitude 10° 23:09:05 10° 74° (ENE) 1,459 -1.1 -17.0°
Sets 23:11:10 0° 76° (ENE) 2,320 0.0 -17.1°
